Regional Weather Roundup
Issued by NWS Little Rock, AR

Home | Current Version | Previous Version | Graphics & Text | Print | Product List | Glossary On
Versions: 1 2 3 4 5 6 7 8 9 10 11 12 13 14 15 16 17 18 19 20 21 22 23 24 25 26 27 28 29 30 31 32 33 34 35 36 37 38 39 40 41 42 43 44 45 46 47 48 49 50
000
ASUS44 KLZK 010605
RWRLZK

WEATHER ROUNDUP FOR ARKANSAS
NATIONAL WEATHER SERVICE LITTLE ROCK AR
100 AM CDT FRI AUG 01 2014

NOTE: "FAIR" INDICATES FEW OR NO CLOUDS BELOW 12,000 FEET WITH NO
SIGNIFICANT WEATHER AND/OR OBSTRUCTIONS TO VISIBILITY.

ARZ001-003-010-029-010700-
NORTHWEST ARKANSAS

CITY           SKY/WX    TMP DP  RH WIND       PRES   REMARKS
FAYETTEVILLE   MOCLDY    64  64 100 CALM      30.10S
6HR MIN TEMP:  64; 6HR MAX TEMP:  72;

FORT SMITH     CLOUDY    69  66  90 CALM      30.07R
6HR MIN TEMP:  68; 6HR MAX TEMP:  73;

HARRISON       CLOUDY    66  65  96 SE3       30.10S FOG
6HR MIN TEMP:  65; 6HR MAX TEMP:  70;

BENTONVILLE    CLOUDY    66  64  94 CALM      30.10S
6HR MIN TEMP:  64; 6HR MAX TEMP:  72;

ROGERS         FOG       64  63  94 NE3       30.11S VSB 1/4
SILOAM SPGS    CLOUDY    66  61  82 CALM      30.11S
6HR MIN TEMP:  66; 6HR MAX TEMP:  70;

HIGHFILL       CLOUDY    66  66 100 CALM      30.09S
6HR MIN TEMP:  64; 6HR MAX TEMP:  70;

$$

ARZ004-005-016-010700-
NORTH CENTRAL ARKANSAS

CITY           SKY/WX    TMP DP  RH WIND       PRES   REMARKS
BATESVILLE     CLOUDY    66  66 100 CALM      30.07S
6HR MIN TEMP:  66; 6HR MAX TEMP:  72;

FLIPPIN        MOCLDY    66  64  94 CALM      30.09S
6HR MIN TEMP:  66; 6HR MAX TEMP:  70;

MTN HOME       PTCLDY    65  65 100 SE3       30.07F FOG
6HR MIN TEMP:  65; 6HR MAX TEMP:  68;

$$

ARZ040-041-010700-
WEST CENTRAL ARKANSAS

CITY           SKY/WX    TMP DP  RH WIND       PRES   REMARKS
MENA           CLOUDY    68  66  94 CALM      30.08S
MOUNT IDA      CLOUDY    67  65  93 CALM      30.05F FOG
6HR MIN TEMP:  66; 6HR MAX TEMP:  68; 6HR PCP: TRACE;

$$

ARZ009-017-025-026-028-010700-
NORTHEAST ARKANSAS

CITY           SKY/WX    TMP DP  RH WIND       PRES   REMARKS
CORNING        MOCLDY    68  68 100 CALM      30.07F FOG
JONESBORO      CLOUDY    70  67  90 CALM      30.06F
6HR MIN TEMP:  68; 6HR MAX TEMP:  73;

NEWPORT        CLOUDY    69  68  97 N5        30.08S
6HR MIN TEMP:  68; 6HR MAX TEMP:  73;

WALNUT RIDGE   PTCLDY    70  64  83 CALM      30.06F
6HR MIN TEMP:  70; 6HR MAX TEMP:  72;

BLYTHEVILLE    CLOUDY    71  69  93 N5        30.06F
6HR MIN TEMP:  70; 6HR MAX TEMP:  75; 6HR PCP: TRACE;

$$

ARZ022-023-033-042-044-010700-
CENTRAL ARKANSAS

CITY           SKY/WX    TMP DP  RH WIND       PRES   REMARKS
LITTLE ROCK    CLOUDY    70  66  87 NE3       30.06S
6HR MIN TEMP:  69; 6HR MAX TEMP:  71; 6HR PCP:  0.04;

N LITTLE ROCK    N/A     68  68  99 E2        30.06S
6HR MIN TEMP:  68; 6HR MAX TEMP:  71;

JACKSONVILLE   MOCLDY    69  66  92 NE2       30.06S
6HR MIN TEMP:  69; 6HR MAX TEMP:  71; 6HR PCP: TRACE;

SEARCY         PTCLDY    68  68 100 CALM      30.07F
6HR MIN TEMP:  68; 6HR MAX TEMP:  71; 6HR PCP: TRACE;

HOT SPRINGS    CLOUDY    68  65  90 CALM      30.07R
6HR MIN TEMP:  67; 6HR MAX TEMP:  68; 6HR PCP: TRACE;

RUSSELLVILLE   CLOUDY    69  67  93 CALM      30.06F FOG
6HR MIN TEMP:  69; 6HR MAX TEMP:  71;

CLINTON        CLOUDY    68  66  94 CALM      30.08S FOG
$$

ARZ036-010700-
EAST ARKANSAS

CITY           SKY/WX    TMP DP  RH WIND       PRES   REMARKS
WEST MEMPHIS   CLOUDY    69  69 100 CALM      30.04F
6HR MIN TEMP:  69; 6HR MAX TEMP:  74; 6HR PCP:  0.02;

$$

ARZ050-053-066-070-073-010700-
SOUTHWEST ARKANSAS

CITY           SKY/WX    TMP DP  RH WIND       PRES   REMARKS
ARKADELPHIA    CLOUDY    68  68 100 NE7       30.05S
6HR MIN TEMP:  67; 6HR MAX TEMP:  69; 6HR PCP: TRACE;

CAMDEN         MOCLDY    68  64  88 CALM      30.03F FOG
TEXARKANA      LGT RAIN  67  66  97 NE5       30.03S FOG
6HR MIN TEMP:  67; 6HR MAX TEMP:  69; 6HR PCP:  0.02;

EL DORADO      CLOUDY    69  68  96 S5        30.05R
6HR MIN TEMP:  69; 6HR MAX TEMP:  71; 6HR PCP: TRACE;

DE QUEEN       LGT RAIN  67  66  97 E3        30.03F
6HR MIN TEMP:  67; 6HR MAX TEMP:  68;

$$

ARZ056-057-069-010700-
SOUTHEAST ARKANSAS

CITY           SKY/WX    TMP DP  RH WIND       PRES   REMARKS
PINE BLUFF     CLOUDY    69  65  86 CALM      30.05S
6HR MIN TEMP:  68; 6HR MAX TEMP:  73; 6HR PCP:  0.01;

STUTTGART      CLOUDY    70  64  83 NE6       30.06S
6HR MIN TEMP:  68; 6HR MAX TEMP:  72; 6HR PCP:  0.07;

MONTICELLO     CLOUDY    70  68  93 NE3       30.04S
6HR MIN TEMP:  70; 6HR MAX TEMP:  73; 6HR PCP:  0.01;


$$




USA.gov is the U.S. government's official web portal to all federal, state and local government web resources and services.